User: anonymous   Login
Location: Unspecified
(0.0000°N, 0.0000°E)
Time: 23:23:34
(UTC+02:00)
Language:

CZ-4 R/B - Orbit

View from above orbital plane
View from above orbital plane
View from above satellite
View from above satellite

Ground track
Ground track

The orbit data is extracted from the following two-line orbital elements,

1 28059U 03049C   17263.78132911 +.00000013 +00000-0 +15203-4 0  9990
2 28059 098.5465 151.5628 0049404 316.8348 082.6715 14.52498336737567
Epoch (UTC): 20 September 2017 18:45:06
Eccentricity: 0.0049404
inclination: 98.5465°
perigee height: 682 km
apogee height: 752 km
right ascension of ascending node: 151.5628°
argument of perigee: 316.8348°
revolutions per day: 14.52498336
mean anomaly at epoch: 82.6715°
orbit number at epoch: 73756

The dashed part of the orbit path shows where the satellite is in the earth's shadow,  

DLR